Location: Unspecified
(0.0000°N, 0.0000°E)
Time: 07:31:48
(UTC+00:00)

O/OREOS (USA 219) - Pass Details

Date: 21 May 2021
Orbit: 621 x 646 km, 72.0° (Epoch: 22 May)

Event Time Altitude Azimuth Distance (km) Brightness Sun altitude
Exits shadow 04:57:17 22° 255° (WSW) 1,377 ? -13.9°
Maximum altitude 04:58:42 26° 284° (WNW) 1,238 ? -13.6°
Drops below altitude 10° 05:02:23 10° 341° (NNW) 1,980 ? -12.7°
Sets 05:04:56 0° 354° (N) 2,884 ? -12.1°
